EW1036 Weather Reports


Display with metric or nautical units.
time (UTC)temp
F
wind
direction
speed
MPH
gust
MPH
rain 1hr
in
rain 24hr
in
rain mn
in
humidity
%
barometer
mb
20260906214036 79 0 0.0 2.0 0.00 0.25 0.13 73 1012.2
20260906213533 80 0 0.0 2.0 0.00 0.25 0.13 73 1012.1
20260906213047 80 0 0.0 5.0 0.00 0.25 0.13 71 1012.0
20260906212532 80 0 0.0 5.0 0.00 0.25 0.13 72 1012.0
20260906212033 80 0 0.0 4.0 0.00 0.25 0.13 71 1012.1
20260906211557 80 0 0.0 4.0 0.00 0.25 0.13 72 1012.1
20260906211032 80 154 0.0 2.0 0.00 0.25 0.13 72 1012.2
20260906210532 80 0 0.0 2.0 0.00 0.25 0.13 75 1012.2
20260906210055 80 145 0.0 4.0 0.00 0.25 0.13 73 1012.2
20260906205533 80 0 0.0 4.0 0.00 0.25 0.13 72 1012.2
20260906205032 80 55 0.0 4.0 0.00 0.25 0.13 71 1012.3
20260906204557 80 110 0.0 6.0 0.00 0.25 0.13 71 1012.4
20260906204036 81 0 0.0 6.0 0.00 0.25 0.13 71 1012.3
20260906203533 81 340 0.0 5.0 0.00 0.25 0.13 69 1012.3
20260906203053 81 126 0.0 5.0 0.00 0.25 0.13 71 1012.4
20260906202533 80 115 0.0 5.0 0.00 0.25 0.13 73 1012.3
20260906202032 80 0 0.0 6.0 0.00 0.25 0.13 72 1012.3
20260906201557 80 187 1.0 6.0 0.00 0.25 0.13 72 1012.4
20260906201034 79 0 0.0 4.0 0.00 0.25 0.13 78 1012.6
20260906200538 80 0 0.0 4.0 0.00 0.25 0.13 76 1012.5
20260906200048 81 0 0.0 3.0 0.00 0.25 0.13 71 1012.3
20260906195533 81 0 0.0 3.0 0.00 0.42 0.13 73 1012.4
20260906195032 81 0 0.0 6.0 0.00 0.42 0.13 75 1012.4
20260906194555 81 0 0.0 6.0 0.00 0.42 0.13 74 1012.5
20260906194032 82 0 0.0 5.0 0.00 0.42 0.13 74 1012.5
20260906193532 82 59 1.0 6.0 0.00 0.42 0.13 75 1012.5
20260906193053 82 0 1.0 6.0 0.00 0.42 0.13 74 1012.5
20260906192532 82 0 1.0 4.0 0.00 0.42 0.13 74 1012.6
20260906192032 81 30 0.0 4.0 0.00 0.42 0.13 74 1012.6
20260906191607 81 0 0.0 5.0 0.00 0.42 0.13 80 1012.6
20260906191032 82 0 0.0 5.0 0.00 0.42 0.13 74 1012.7
20260906190533 82 0 1.0 6.0 0.00 0.42 0.13 75 1012.6
20260906190054 81 104 1.0 6.0 0.00 0.42 0.13 75 1012.7
20260906185532 80 187 0.0 2.0 0.00 0.42 0.13 78 1012.7
20260906185033 79 0 0.0 2.0 0.00 0.42 0.13 80 1012.9
20260906184548 79 0 0.0 2.0 0.00 0.42 0.13 80 1012.8
20260906184033 79 0 0.0 3.0 0.00 0.42 0.13 76 1012.8
20260906183532 79 0 0.0 3.0 0.00 0.42 0.13 78 1012.9
20260906183056 80 0 0.0 3.0 0.00 0.42 0.13 77 1012.9
20260906182532 81 0 0.0 3.0 0.00 0.42 0.13 75 1013.0
20260906182034 81 0 0.0 3.0 0.00 0.42 0.13 78 1013.0
20260906181554 81 14 0.0 3.0 0.00 0.42 0.13 80 1013.0
20260906181032 81 0 0.0 4.0 0.00 0.42 0.13 76 1012.9
20260906180532 81 136 0.0 5.0 0.00 0.42 0.13 79 1012.9
20260906180050 80 0 0.0 6.0 0.00 0.42 0.13 81 1012.8
20260906175534 81 0 0.0 6.0 0.00 0.42 0.13 77 1012.8
20260906175028 80 0 1.0 6.0 0.00 0.42 0.13 84 1012.8
20260906174546 79 210 0.0 2.0 0.01 0.42 0.13 87 1012.9
20260906174031 78 0 0.0 3.0 0.01 0.42 0.13 88 1012.9
20260906173531 78 0 0.0 3.0 0.06 0.42 0.13 90 1013.0
20260906173059 78 0 0.0 3.0 0.13 0.42 0.13 90 1013.0
20260906172533 79 0 0.0 3.0 0.13 0.42 0.13 90 1013.0
20260906172032 79 58 0.0 3.0 0.13 0.42 0.13 94 1013.0
20260906171555 78 0 0.0 2.0 0.13 0.42 0.13 93 1013.0
20260906171032 78 0 0.0 1.0 0.13 0.42 0.13 94 1013.1
20260906170535 77 0 0.0 1.0 0.13 0.42 0.13 95 1013.0
20260906170054 76 0 0.0 1.0 0.13 0.42 0.13 94 1013.0
20260906165529 75 0 0.0 0.0 0.13 0.42 0.13 94 1013.1
20260906165035 76 0 0.0 1.0 0.13 0.42 0.13 93 1013.3
20260906164555 76 0 0.0 1.0 0.12 0.41 0.12 92 1013.3
20260906164032 77 0 0.0 2.0 0.12 0.41 0.12 90 1013.4
20260906163532 78 0 0.0 2.0 0.06 0.35 0.06 87 1013.4
20260906163054 80 0 0.0 3.0 0.00 0.29 0.00 85 1013.3
20260906162534 81 190 0.0 4.0 0.00 0.29 0.00 81 1013.1
20260906162032 81 0 0.0 4.0 0.00 0.29 0.00 79 1013.1
20260906161553 81 0 0.0 4.0 0.00 0.29 0.00 79 1013.1
20260906161032 81 83 0.0 4.0 0.00 0.29 0.00 81 1013.2
20260906160533 81 60 0.0 4.0 0.00 0.29 0.00 81 1013.0
20260906160049 82 0 0.0 4.0 0.00 0.29 0.00 82 1013.1
20260906155533 82 0 0.0 3.0 0.00 0.29 0.00 78 1013.1
20260906155033 83 0 0.0 4.0 0.00 0.29 0.00 79 1013.1
20260906154548 81 0 0.0 4.0 0.00 0.29 0.00 83 1013.1
20260906154033 81 0 0.0 2.0 0.00 0.29 0.00 84 1013.2
20260906153533 81 0 0.0 2.0 0.00 0.29 0.00 86 1013.2
20260906153056 82 186 0.0 3.0 0.00 0.29 0.00 81 1013.2
20260906152533 81 0 0.0 3.0 0.00 0.29 0.00 81 1013.1
20260906152032 81 0 0.0 1.0 0.00 0.29 0.00 83 1013.1
20260906151553 81 0 0.0 0.0 0.00 0.29 0.00 86 1013.0
20260906151032 81 0 0.0 1.0 0.00 0.29 0.00 88 1013.0
20260906150532 81 0 0.0 1.0 0.00 0.29 0.00 84 1013.0
20260906150048 82 0 0.0 1.0 0.00 0.29 0.00 78 1013.0
20260906145532 84 0 0.0 1.0 0.00 0.29 0.00 82 1012.9
20260906145035 83 0 0.0 3.0 0.00 0.29 0.00 77 1012.8
20260906144556 83 0 0.0 3.0 0.00 0.29 0.00 85 1012.8
20260906144035 83 0 0.0 3.0 0.00 0.29 0.00 81 1012.7
20260906143534 82 0 0.0 3.0 0.00 0.29 0.00 81 1012.7
20260906143057 82 0 0.0 3.0 0.00 0.29 0.00 82 1012.6
20260906142532 82 0 0.0 2.0 0.00 0.29 0.00 85 1012.6
20260906142033 81 0 0.0 2.0 0.00 0.29 0.00 85 1012.4
20260906141553 81 0 0.0 2.0 0.00 0.29 0.00 85 1012.4
20260906141032 80 0 0.0 1.0 0.00 0.29 0.00 87 1012.4
20260906140534 80 0 0.0 1.0 0.00 0.29 0.00 89 1012.4
20260906140053 80 0 0.0 4.0 0.00 0.29 0.00 90 1012.3
20260906135532 80 0 0.0 4.0 0.00 0.29 0.00 88 1012.2
20260906135031 80 0 0.0 3.0 0.00 0.29 0.00 89 1012.1
20260906134615 80 200 0.0 3.0 0.00 0.29 0.00 88 1012.1
20260906134033 79 0 0.0 2.0 0.00 0.29 0.00 90 1012.1
20260906133531 79 0 0.0 2.0 0.00 0.29 0.00 92 1012.1
20260906133057 78 0 0.0 1.0 0.00 0.29 0.00 92 1012.1
20260906132534 78 0 0.0 0.0 0.00 0.29 0.00 96 1012.1
20260906132033 77 0 0.0 0.0 0.00 0.29 0.00 95 1012.2
20260906131553 77 0 0.0 2.0 0.00 0.29 0.00 96 1012.1
20260906131032 77 0 0.0 2.0 0.00 0.29 0.00 96 1012.1
20260906130532 77 0 0.0 1.0 0.00 0.29 0.00 96 1012.2
20260906130114 77 0 0.0 1.0 0.00 0.29 0.00 97 1012.1
20260906125532 76 0 0.0 1.0 0.00 0.29 0.00 97 1011.9
20260906125032 75 0 0.0 1.0 0.00 0.29 0.00 97 1011.9
20260906124608 75 0 0.0 1.0 0.00 0.29 0.00 97 1011.8
20260906124032 75 0 0.0 1.0 0.00 0.29 0.00 97 1011.9
20260906123532 74 0 0.0 0.0 0.00 0.29 0.00 97 1011.9
20260906123102 73 0 0.0 0.0 0.00 0.29 0.00 97 1011.8
20260906122533 73 0 0.0 1.0 0.00 0.29 0.00 97 1011.9
20260906122029 73 0 0.0 1.0 0.00 0.29 0.00 97 1011.9
20260906121606 72 0 0.0 0.0 0.00 0.29 0.00 97 1011.9
20260906121032 72 0 0.0 0.0 0.00 0.29 0.00 97 1011.9
20260906120532 72 0 0.0 0.0 0.00 0.29 0.00 97 1011.9
20260906120106 72 0 0.0 0.0 0.00 0.29 0.00 97 1011.8
20260906115532 72 0 0.0 0.0 0.00 0.29 0.00 97 1011.9
20260906115031 71 0 0.0 0.0 0.00 0.29 0.00 97 1011.9
20260906114546 71 0 0.0 0.0 0.00 0.29 0.00 97 1011.9
20260906114031 71 0 0.0 0.0 0.00 0.29 0.00 97 1011.9
20260906113532 71 0 0.0 0.0 0.00 0.29 0.00 97 1011.8
20260906113057 71 0 0.0 0.0 0.00 0.29 0.00 97 1011.8
20260906112532 71 0 0.0 0.0 0.00 0.29 0.00 97 1011.7
20260906112034 71 0 0.0 0.0 0.00 0.29 0.00 97 1011.7
20260906111552 71 0 0.0 0.0 0.00 0.29 0.00 97 1011.7
20260906111033 71 0 0.0 0.0 0.00 0.29 0.00 97 1011.7
20260906110533 71 0 0.0 0.0 0.00 0.29 0.00 97 1011.5
20260906110052 71 0 0.0 0.0 0.00 0.29 0.00 97 1011.5
20260906105532 71 0 0.0 0.0 0.00 0.29 0.00 97 1011.5
20260906105032 71 0 0.0 0.0 0.00 0.29 0.00 97 1011.4
20260906104548 71 0 0.0 0.0 0.00 0.29 0.00 97 1011.3
20260906104032 71 0 0.0 0.0 0.00 0.29 0.00 97 1011.3
20260906103531 71 0 0.0 0.0 0.00 0.29 0.00 97 1011.2
20260906103054 71 0 0.0 0.0 0.00 0.29 0.00 97 1011.0
20260906102534 71 0 0.0 0.0 0.00 0.29 0.00 97 1011.0
20260906102031 71 0 0.0 0.0 0.00 0.29 0.00 97 1010.9
20260906101556 71 0 0.0 0.0 0.00 0.29 0.00 97 1010.9
20260906101036 72 0 0.0 0.0 0.00 0.29 0.00 97 1010.9
20260906100532 72 0 0.0 0.0 0.00 0.29 0.00 97 1010.8
20260906100052 72 0 0.0 0.0 0.00 0.29 0.00 97 1010.8
20260906095533 72 0 0.0 0.0 0.00 0.29 0.00 97 1010.6
20260906095032 72 0 0.0 0.0 0.00 0.29 0.00 97 1010.4
20260906094547 72 0 0.0 0.0 0.00 0.29 0.00 97 1010.4
20260906094032 72 0 0.0 0.0 0.00 0.29 0.00 97 1010.4
20260906093534 72 0 0.0 0.0 0.00 0.29 0.00 97 1010.4
20260906093052 72 0 0.0 0.0 0.00 0.29 0.00 97 1010.4
20260906092534 72 0 0.0 0.0 0.00 0.29 0.00 97 1010.2
20260906092035 72 0 0.0 0.0 0.00 0.29 0.00 97 1010.2
20260906091554 72 0 0.0 0.0 0.00 0.29 0.00 97 1010.1
20260906091034 72 0 0.0 0.0 0.00 0.29 0.00 97 1010.1
20260906090532 72 0 0.0 0.0 0.00 0.29 0.00 97 1010.0
20260906090055 72 0 0.0 0.0 0.00 0.29 0.00 97 1010.0
20260906085531 73 0 0.0 0.0 0.00 0.29 0.00 97 1009.9
20260906085032 73 0 0.0 0.0 0.00 0.29 0.00 97 1010.0
20260906084549 73 0 0.0 0.0 0.00 0.29 0.00 97 1009.9
20260906084036 73 0 0.0 0.0 0.00 0.29 0.00 97 1010.0
20260906083533 73 0 0.0 0.0 0.00 0.29 0.00 97 1009.9
20260906083046 73 0 0.0 0.0 0.00 0.29 0.00 97 1010.1
20260906082531 73 0 0.0 0.0 0.00 0.29 0.00 97 1010.1
20260906082035 73 0 0.0 0.0 0.00 0.29 0.00 97 1009.9
20260906081556 73 0 0.0 0.0 0.00 0.29 0.00 97 1009.9
20260906081035 73 0 0.0 0.0 0.00 0.29 0.00 97 1009.9
20260906080536 73 0 0.0 0.0 0.00 0.29 0.00 97 1010.0
20260906080056 73 0 0.0 0.0 0.00 0.29 0.00 97 1010.0
20260906075535 73 0 0.0 0.0 0.00 0.29 0.00 97 1010.0
20260906075032 73 0 0.0 0.0 0.00 0.29 0.00 97 1009.9
20260906074553 73 0 0.0 0.0 0.00 0.29 0.00 97 1009.8
20260906074034 73 0 0.0 0.0 0.00 0.29 0.00 97 1009.9
20260906073535 73 0 0.0 0.0 0.00 0.29 0.00 97 1009.9
20260906073058 73 0 0.0 0.0 0.00 0.29 0.00 97 1009.9
20260906072535 73 0 0.0 0.0 0.00 0.29 0.00 97 1009.8
20260906072034 73 0 0.0 0.0 0.00 0.29 0.00 97 1009.9
20260906071559 73 0 0.0 0.0 0.00 0.29 0.00 97 1009.8
20260906071034 73 0 0.0 0.0 0.00 0.29 0.00 97 1009.7
20260906070534 73 0 0.0 0.0 0.00 0.29 0.00 97 1009.7
20260906070055 73 0 0.0 0.0 0.00 0.29 0.00 97 1009.8
20260906065533 73 0 0.0 0.0 0.00 0.29 0.00 97 1009.8
20260906065034 73 0 0.0 0.0 0.00 0.29 0.00 97 1009.7
20260906064554 73 0 0.0 0.0 0.00 0.29 0.00 97 1009.8
20260906064034 73 0 0.0 0.0 0.00 0.29 0.00 97 1009.9
20260906063533 73 0 0.0 0.0 0.00 0.29 0.00 97 1010.0
20260906063049 73 0 0.0 0.0 0.00 0.29 0.00 97 1009.9
20260906062533 73 0 0.0 0.0 0.00 0.29 0.00 97 1010.0
20260906062035 73 0 0.0 0.0 0.00 0.29 0.00 97 1010.1
20260906061613 73 0 0.0 0.0 0.00 0.29 0.00 97 1010.1
20260906061036 73 0 0.0 0.0 0.00 0.29 0.00 97 1010.1
20260906060534 73 0 0.0 0.0 0.00 0.29 0.00 97 1010.0
20260906060100 73 0 0.0 0.0 0.00 0.29 0.00 97 1010.1
20260906055533 73 0 0.0 0.0 0.00 0.29 0.00 97 1010.3
20260906055033 73 0 0.0 0.0 0.00 0.29 0.00 97 1010.3
20260906054552 73 0 0.0 0.0 0.00 0.29 0.00 97 1010.4
20260906054033 73 0 0.0 0.0 0.00 0.29 0.00 97 1010.4
20260906053531 73 0 0.0 0.0 0.00 0.29 0.00 97 1010.6
20260906053044 73 0 0.0 0.0 0.00 0.29 0.00 97 1010.7
20260906052534 73 0 0.0 0.0 0.00 0.29 0.00 97 1010.8
20260906052034 73 0 0.0 0.0 0.00 0.29 0.00 97 1010.9
20260906051604 73 0 0.0 0.0 0.00 0.29 0.00 97 1010.9
20260906051034 73 0 0.0 0.0 0.00 0.29 0.00 97 1010.9
20260906050534 73 0 0.0 0.0 0.00 0.29 0.00 97 1010.9
20260906050053 73 0 0.0 0.0 0.00 0.29 0.00 97 1010.9
20260906045536 73 0 0.0 0.0 0.00 0.29 0.00 97 1010.9
20260906045033 73 0 0.0 0.0 0.00 0.29 0.00 97 1011.2
20260906044549 73 0 0.0 0.0 0.00 0.29 0.00 97 1011.2
20260906044034 73 0 0.0 0.0 0.00 0.29 0.00 97 1011.1
20260906043534 73 0 0.0 0.0 0.00 0.29 0.00 97 1011.0
20260906043045 73 0 0.0 0.0 0.00 0.29 0.00 97 1011.0
20260906042533 73 0 0.0 0.0 0.00 0.29 0.00 97 1011.0
20260906042035 73 0 0.0 0.0 0.00 0.29 0.00 97 1011.0
20260906041547 73 0 0.0 0.0 0.00 0.29 0.00 97 1010.9
20260906041034 73 0 0.0 0.0 0.00 0.29 0.00 97 1010.9
20260906040534 73 0 0.0 0.0 0.00 0.29 0.00 97 1010.9
20260906040055 73 0 0.0 0.0 0.00 0.29 0.00 97 1010.9
20260906035534 73 0 0.0 0.0 0.00 0.29 0.29 97 1010.8
20260906035034 73 0 0.0 0.0 0.00 0.29 0.29 97 1010.8
20260906034556 73 0 0.0 0.0 0.00 0.29 0.29 97 1010.8
20260906034032 73 0 0.0 0.0 0.00 0.29 0.29 97 1010.8
20260906033533 73 0 0.0 0.0 0.00 0.29 0.29 96 1010.8
20260906033049 73 0 0.0 0.0 0.00 0.29 0.29 97 1010.9
20260906032531 73 0 0.0 0.0 0.00 0.29 0.29 97 1010.9
20260906032033 73 0 0.0 0.0 0.00 0.29 0.29 97 1011.0
20260906031554 73 0 0.0 0.0 0.00 0.29 0.29 96 1011.0
20260906031032 73 0 0.0 0.0 0.00 0.29 0.29 97 1011.1
20260906030533 73 0 0.0 0.0 0.00 0.29 0.29 96 1011.2
20260906030053 73 0 0.0 0.0 0.00 0.29 0.29 96 1011.1
20260906025532 73 0 0.0 0.0 0.00 0.29 0.29 97 1011.2
20260906025032 73 0 0.0 0.0 0.00 0.29 0.29 97 1011.3
20260906024548 73 0 0.0 0.0 0.00 0.29 0.29 97 1011.3
20260906024034 73 0 0.0 0.0 0.00 0.29 0.29 97 1011.4
20260906023532 73 0 0.0 0.0 0.00 0.29 0.29 96 1011.4
20260906023106 74 0 0.0 0.0 0.00 0.29 0.29 96 1011.6
20260906022532 74 0 0.0 0.0 0.00 0.29 0.29 96 1011.6
20260906022035 74 0 0.0 0.0 0.01 0.29 0.29 96 1011.7
20260906021555 74 0 0.0 0.0 0.01 0.29 0.29 96 1011.6
20260906021032 74 0 0.0 0.0 0.01 0.29 0.29 97 1011.4
20260906020532 74 0 0.0 3.0 0.01 0.29 0.29 97 1011.3
20260906015532 74 0 0.0 0.0 0.01 0.29 0.29 97 1011.6
20260906015032 74 0 0.0 0.0 0.01 0.29 0.29 97 1011.6
20260906014553 74 0 0.0 0.0 0.01 0.29 0.29 97 1011.5
20260906014031 74 0 0.0 0.0 0.01 0.29 0.29 97 1011.2
20260906013532 74 0 0.0 0.0 0.01 0.29 0.29 97 1011.2
20260906013056 74 0 0.0 0.0 0.01 0.29 0.29 97 1011.2
20260906012533 74 0 0.0 0.0 0.01 0.29 0.29 96 1011.0
20260906012032 74 0 0.0 0.0 0.00 0.28 0.28 96 1010.9
20260906011604 74 0 0.0 0.0 0.00 0.28 0.28 97 1010.8
20260906011035 74 0 0.0 0.0 0.00 0.28 0.28 96 1010.7
20260906010534 74 0 0.0 0.0 0.00 0.28 0.28 96 1010.4
20260906010053 74 0 0.0 0.0 0.00 0.28 0.28 96 1010.1
20260906005532 74 0 0.0 0.0 0.00 0.28 0.28 96 1009.9
20260906005034 74 0 0.0 0.0 0.00 0.28 0.28 96 1009.7
20260906004556 74 0 0.0 0.0 0.00 0.28 0.28 96 1009.6
20260906004032 74 0 0.0 0.0 0.00 0.28 0.28 96 1009.4
20260906003532 75 0 0.0 0.0 0.00 0.28 0.28 96 1009.2
20260906003053 75 0 0.0 0.0 0.00 0.28 0.28 96 1009.2
20260906002532 75 0 0.0 0.0 0.00 0.28 0.28 96 1009.4
20260906002032 75 0 0.0 0.0 0.00 0.28 0.28 96 1009.8
20260906001551 75 0 0.0 2.0 0.00 0.28 0.28 96 1009.9
20260906001034 75 0 0.0 2.0 0.00 0.28 0.28 96 1009.7
20260906000532 75 36 0.0 1.0 0.00 0.28 0.28 96 1009.7
20260906000049 75 0 0.0 0.0 0.01 0.28 0.28 96 1009.7
20260905235532 75 0 0.0 0.0 0.01 0.28 0.28 96 1009.6
20260905235032 75 0 0.0 0.0 0.02 0.28 0.28 96 1009.2
20260905234600 75 0 0.0 0.0 0.03 0.28 0.28 96 1009.2
20260905234032 74 0 0.0 0.0 0.03 0.28 0.28 96 1009.5
20260905233534 74 0 0.0 0.0 0.03 0.28 0.28 96 1009.6
20260905233057 74 0 0.0 0.0 0.03 0.28 0.28 96 1009.8
20260905232534 74 0 0.0 0.0 0.03 0.28 0.28 96 1010.1
20260905232032 74 0 0.0 0.0 0.03 0.28 0.28 96 1010.7
20260905231551 74 0 0.0 4.0 0.03 0.28 0.28 96 1011.3
20260905231036 74 0 0.0 5.0 0.03 0.28 0.28 96 1010.4
20260905230532 74 56 1.0 5.0 0.03 0.28 0.28 96 1010.4
20260905230057 74 158 0.0 3.0 0.02 0.27 0.27 96 1010.6
20260905225535 74 0 0.0 2.0 0.02 0.26 0.26 96 1009.9
20260905225032 74 0 0.0 2.0 0.03 0.26 0.26 95 1009.7
20260905224559 74 0 0.0 2.0 0.06 0.25 0.25 96 1009.9
20260905224033 74 0 0.0 2.0 0.07 0.25 0.25 96 1010.1
20260905223535 74 0 0.0 0.0 0.08 0.25 0.25 96 1010.2
20260905223055 74 0 0.0 0.0 0.08 0.25 0.25 95 1009.8
20260905222533 74 0 0.0 0.0 0.08 0.25 0.25 95 1009.5
20260905222032 74 0 0.0 2.0 0.08 0.25 0.25 95 1009.5
20260905221549 74 0 0.0 3.0 0.08 0.25 0.25 95 1009.1
20260905221029 74 0 0.0 3.0 0.08 0.25 0.25 95 1008.9
20260905220532 74 39 1.0 3.0 0.08 0.25 0.25 95 1009.7
20260905220057 74 0 0.0 2.0 0.08 0.25 0.25 95 1009.8
20260905215533 75 0 0.0 1.0 0.07 0.24 0.24 95 1010.6
20260905215033 75 0 0.0 1.0 0.06 0.23 0.23 94 1010.2
20260905214554 75 0 0.0 2.0 0.02 0.19 0.19 95 1011.1